TimeEST,TemperatureF,Dew PointF,Humidity,Sea Level PressureIn,VisibilityMPH,Wind Direction,Wind SpeedMPH,Gust SpeedMPH,PrecipitationIn,Events,Conditions,WindDirDegrees,DateUTC
12:53 AM,17.1,12.0,81,30.37,9.0,Calm,Calm,-,N/A,,Clear,0,2013-01-08 05:53:00
1:53 AM,16.0,10.0,77,30.37,10.0,Calm,Calm,-,N/A,,Clear,0,2013-01-08 06:53:00
2:53 AM,14.0,10.0,84,30.36,9.0,Calm,Calm,-,N/A,,Clear,0,2013-01-08 07:53:00
3:53 AM,12.0,7.0,80,30.33,8.0,South,9.2,-,N/A,,Clear,190,2013-01-08 08:53:00
4:53 AM,19.0,14.0,81,30.33,10.0,SW,6.9,-,N/A,,Clear,230,2013-01-08 09:53:00
5:53 AM,18.0,12.9,81,30.33,9.0,South,4.6,-,N/A,,Clear,180,2013-01-08 10:53:00
6:53 AM,16.0,10.9,81,30.34,9.0,South,3.5,-,N/A,,Clear,170,2013-01-08 11:53:00
7:53 AM,16.0,12.0,84,30.36,5.0,Calm,Calm,-,N/A,,Clear,0,2013-01-08 12:53:00
8:53 AM,21.0,16.0,81,30.37,10.0,Calm,Calm,-,N/A,,Clear,0,2013-01-08 13:53:00
9:53 AM,35.1,23.0,61,30.37,10.0,South,5.8,-,N/A,,Clear,170,2013-01-08 14:53:00
10:53 AM,39.0,24.1,55,30.35,10.0,South,8.1,-,N/A,,Clear,190,2013-01-08 15:53:00
11:53 AM,42.1,24.1,49,30.32,10.0,SSW,9.2,-,N/A,,Clear,210,2013-01-08 16:53:00
12:53 PM,44.1,23.0,43,30.30,10.0,SW,9.2,-,N/A,,Clear,230,2013-01-08 17:53:00
1:53 PM,45.0,23.0,42,30.30,10.0,SSW,9.2,-,N/A,,Clear,210,2013-01-08 18:53:00
2:53 PM,43.0,25.0,49,30.30,10.0,South,5.8,-,N/A,,Clear,180,2013-01-08 19:53:00
3:53 PM,45.0,23.0,42,30.31,10.0,SSW,3.5,-,N/A,,Clear,200,2013-01-08 20:53:00
4:53 PM,37.9,23.0,55,30.32,10.0,Calm,Calm,-,N/A,,Clear,0,2013-01-08 21:53:00
5:53 PM,39.9,21.9,49,30.33,10.0,WSW,6.9,-,N/A,,Clear,240,2013-01-08 22:53:00
6:53 PM,28.9,21.9,75,30.35,10.0,Calm,Calm,-,N/A,,Clear,0,2013-01-08 23:53:00
7:53 PM,28.0,21.0,75,30.38,10.0,Calm,Calm,-,N/A,,Clear,0,2013-01-09 00:53:00
8:53 PM,28.9,21.9,75,30.38,10.0,Calm,Calm,-,N/A,,Clear,0,2013-01-09 01:53:00
9:53 PM,26.1,19.9,78,30.38,10.0,Calm,Calm,-,N/A,,Clear,0,2013-01-09 02:53:00
10:53 PM,26.1,21.0,81,30.38,9.0,Calm,Calm,-,N/A,,Clear,0,2013-01-09 03:53:00
11:53 PM,26.1,21.0,81,30.38,10.0,Calm,Calm,-,N/A,,Clear,0,2013-01-09 04:53:00